[[{"header":{"parameterUnit":"m.s-1","parameterCategory":1,"la1":30.2991,"la2":30.254,"lo1":-89.0895,"lo2":-89.0444,"dy":0.0017,"dx":0.0017,"nx":28,"ny":28,"refTime":"2024-03-01T09:00:00:Z","depth":0,"parameterNumber":2,"parameterNumberName":"U-component_of_WINDS"},"data":[0,0,0,0,0,0,0,0,0,0,0,0,0,0,0,0,0,0,0,0,0,0,0,0,0,0,0,0,0,0,0,0,0,0,0,0,0,0,0,0,0,0,0,0,0,0,0,0,0,0,0,0,0,0,0,0,0,0,-6.4901,-6.4902,0,-6.5013,-6.5014,-6.5015,-6.4902,-6.4898,-6.4894,-6.4889,-6.5003,-6.501,-6.5018,0,0,0,0,0,0,0,0,0,0,0,0,0,-6.4588,-6.4594,-6.4901,-6.4902,-6.4903,-6.5013,-6.5014,-6.5016,-6.4903,-6.4898,-6.4892,-6.4887,-6.5001,-6.501,-6.5018,0,0,0,0,0,0,0,0,0,0,0,0,0,-6.4714,-6.4596,-6.49,-6.486,-6.4858,-6.5012,-6.5014,-6.5016,-6.4904,-6.4898,-6.4891,-6.4885,-6.4998,-6.5009,-6.5019,-6.5219,0,0,-6.5052,-6.5057,0,0,0,0,0,0,0,0,-6.4707,-6.4726,-6.4865,-6.4863,-6.4861,-6.4937,-6.4946,-6.5084,-6.4906,-6.4887,-6.4889,-6.4882,-6.4987,-6.4998,-6.5034,-6.5224,-6.5229,-6.5053,-6.506,-6.5064,-6.5067,0,0,0,0,0,0,0,-6.4699,-6.472,-6.4945,-6.4867,-6.4865,-6.4837,-6.4847,-6.4971,-6.4972,-6.4888,-6.488,-6.4895,-6.4984,-6.5023,-6.5035,-6.523,-6.5053,-6.5062,-6.5069,-6.5073,-6.559,-6.5597,0,0,0,0,0,0,-6.4694,-6.4714,-6.4941,-6.4948,-6.4766,-6.4848,-6.486,-6.4919,-6.4971,-6.4972,-6.49,-6.4889,-6.5008,-6.5023,-6.5039,-6.5275,-6.5064,-6.5074,-6.508,-6.5583,-6.5592,-6.56,0,0,0,0,0,0,-6.4688,-6.4716,-6.4937,-6.4829,-6.4855,-6.486,-6.4928,-6.4925,-6.4964,-6.498,-6.498,-6.494,-6.5004,-6.5024,-6.5175,-6.5278,-6.5079,-6.5089,-6.5574,-6.5586,-6.5596,-6.575,0,0,0,0,0,0,-6.468,-6.4714,-6.479,-6.4832,-6.4861,-6.5071,-6.4934,-6.4932,-6.4983,-6.4969,-6.5018,-6.5019,-6.5,-6.5159,-6.5186,-6.5289,-6.5097,-6.5565,-6.5579,-6.5592,-6.5735,-6.5765,-6.5789,0,0,0,0,0,-6.4669,-6.4829,-6.4794,-6.4823,-6.4956,-6.5078,-6.5094,-6.5069,-6.4992,-6.5068,-6.5078,-6.5018,-6.5263,-6.5176,-6.5204,-6.5312,-6.5558,-6.5575,-6.5591,-6.5723,-6.5759,-6.5789,0,0,0,0,0,0,-6.4798,-6.4833,-6.4796,-6.4974,-6.5024,-6.5058,-6.5153,-6.5108,-6.518,-6.5164,-6.513,-6.5142,-6.5302,-6.5322,-6.5225,-6.5508,-6.5398,-6.5421,-6.5489,-6.5522,-6.5549,-6.554,-6.5106,0,0,0,0,0,-6.4848,-6.4944,-6.4969,-6.5124,-6.5151,-6.5148,-6.52,-6.5177,-6.5227,-6.5247,-6.5269,-6.5319,-6.5407,-6.5466,-6.5548,-6.5738,-6.5747,-6.5827,-6.5854,-6.5876,-6.5896,-6.5998,-6.6033,-6.5653,-6.5653,-6.5653,0,0,-6.495,-6.4981,-6.5044,-6.5151,-6.5186,-6.5286,-6.5167,-6.5277,-6.5351,-6.5264,-6.5407,-6.5426,-6.548,-6.5651,-6.5728,-6.5673,-6.6003,-6.5897,-6.5914,-6.5922,-6.6018,-6.6054,-6.6086,-6.5664,-6.5662,-6.5661,0,0,-6.5188,-6.5222,-6.5354,-6.5393,-6.5449,-6.5446,-6.5479,-6.5521,-6.5529,-6.5673,-6.561,-6.5697,-6.585,-6.5892,-6.5933,-6.6188,-6.6135,-6.6216,-6.6356,-6.6456,-6.6486,-6.6512,-6.6603,-6.6636,-6.6236,-6.6236,-6.6237,0,-6.5308,-6.5456,-6.5428,-6.5543,-6.5592,-6.5519,-6.5653,-6.5691,-6.5772,-6.5807,-6.5745,-6.5935,-6.5967,-6.6147,-6.6209,-6.6245,-6.628,-6.6209,-6.6484,-6.651,-6.6534,-6.662,-6.6654,-6.6246,-6.6245,-6.6244,-6.6243,0,-6.5601,-6.5705,-6.5805,-6.5885,-6.5945,-6.607,-6.606,-6.6124,-6.6096,-6.61,-6.6248,-6.6284,-6.6372,-6.6413,-6.6387,-6.659,-6.6554,-6.6489,-6.6377,-6.6581,-6.6661,-6.6693,-6.6259,-6.6256,-6.6253,-6.6251,0,0,-6.5922,-6.5985,-6.6022,-6.6058,-6.6115,-6.6195,-6.6316,-6.6403,-6.6458,-6.6517,-6.6617,-6.6749,-6.6689,-6.6736,-6.6714,-6.6802,-6.7001,-6.6725,-6.6726,-6.6775,-6.7227,-6.7275,-6.7313,-6.6967,-6.6973,-6.6978,-6.7222,0,-6.616,-6.637,-6.6349,-6.6549,-6.6644,-6.6577,-6.6683,-6.6729,-6.6737,-6.6819,-6.6827,-6.6921,-6.6836,-6.6863,-6.6947,-6.6959,-6.7091,-6.6941,-6.7059,-6.7064,-6.7046,-6.7355,-6.7406,-6.7634,-6.7253,-6.7258,-6.7262,0,-6.6466,-6.6536,-6.6746,-6.6789,-6.6828,-6.6923,-6.7001,-6.7081,-6.7132,-6.7132,-6.7185,-6.7148,-6.727,-6.7157,-6.7324,-6.7223,-6.727,-6.7284,-6.7292,-6.7301,-6.7174,-6.7371,-6.7706,-6.774,-6.7311,-6.7308,-6.7304,0,-6.6678,-6.6824,-6.6968,-6.7001,-6.7055,-6.7124,-6.715,-6.7195,-6.7249,-6.7317,-6.7351,-6.7434,-6.7478,-6.7542,-6.7528,-6.7448,-6.7699,-6.7585,-6.7702,-6.7702,-6.7756,-6.7752,-6.8102,-6.7789,-6.7789,-6.7788,-6.7787,0,-6.6945,-6.7076,-6.7064,-6.7153,-6.7297,-6.7272,-6.7416,-6.7433,-6.7474,-6.7565,-6.7512,-6.7599,-6.7576,-6.7661,-6.7651,-6.7791,-6.7812,-6.7815,-6.781,-6.7819,-6.7818,-6.7848,-6.7831,-6.7797,-6.7795,-6.7793,-6.7792,0,-6.7205,-6.7203,-6.7355,-6.7395,-6.7408,-6.7513,-6.7546,-6.763,-6.7634,-6.775,-6.7775,-6.7782,-6.788,-6.7873,-6.7984,-6.7977,-6.8149,-6.8127,-6.8132,-6.8126,-6.8243,-6.8231,-6.8623,-6.8672,-6.8328,-6.8332,-6.8335,0,-6.7375,-6.7474,-6.7525,-6.7582,-6.7613,-6.7706,-6.776,-6.774,-6.7799,-6.7866,-6.7942,-6.8036,-6.8109,-6.8269,-6.8283,-6.8368,-6.8346,-6.8477,-6.8358,-6.8364,-6.8347,-6.834,-6.835,-6.85,-6.8504,-6.8507,-6.851,0,-6.7677,-6.7672,-6.7753,-6.7835,-6.7902,-6.7965,-6.8022,-6.8072,-6.8057,-6.8127,-6.8227,-6.8284,-6.8397,-6.849,-6.8571,-6.8597,-6.8552,-6.8548,-6.8579,-6.8588,-6.8586,-6.8588,-6.8194,-6.8538,-6.8535,-6.8533,-6.8532,-6.8531,-6.7897,-6.7981,-6.8031,-6.8123,-6.8164,-6.822,-6.83,-6.8315,-6.8398,-6.8489,-6.8472,-6.8584,-6.8634,-6.8738,-6.8772,-6.886,-6.8812,-6.8858,-6.8869,-6.888,-6.8893,-6.8574,-6.8875,-6.8874,-6.8873,-6.8872,-6.8872,0,-6.8195,-6.8224,-6.8309,-6.8391,-6.8465,-6.8416,-6.8478,-6.8542,-6.8641,-6.8692,-6.8766,-6.8881,-6.8972,-6.8994,-6.9081,-6.9147,-6.9128,-6.9171,-6.9165,-6.9171,-6.8931,-6.8895,-6.9184,-6.9184,-6.9184,-6.9184,-6.9184,-6.9184,-6.8358,-6.85,-6.85,-6.8661,-6.8689,-6.8799,-6.8838,-6.8889,-6.8929,-6.906,-6.9135,-6.915,-6.9189,-6.9279,-6.936,-6.9364,-6.9398,-6.9449,-6.9445,-6.922,-6.9188,-6.9158,-6.9124,-6.9457,-6.9457,-6.9678,-6.968,-6.9682]},{"header":{"parameterUnit":"m.s-1","parameterCategory":1,"la1":30.2991,"la2":30.254,"lo1":-89.0895,"lo2":-89.0444,"dy":0.0017,"dx":0.0017,"nx":28,"ny":28,"refTime":"2024-03-01T09:00:00:Z","depth":0,"parameterNumber":3,"parameterNumberName":"V-component_of_WINDS"},"data":[0,0,0,0,0,0,0,0,0,0,0,0,0,0,0,0,0,0,0,0,0,0,0,0,0,0,0,0,0,0,0,0,0,0,0,0,0,0,0,0,0,0,0,0,0,0,0,0,0,0,0,0,0,0,0,0,0,0,0.8019,0.802,0,0.8095,0.8096,0.8097,0.8164,0.8165,0.8165,0.8166,0.824,0.8241,0.8242,0,0,0,0,0,0,0,0,0,0,0,0,0,0.7929,0.793,0.8019,0.802,0.8021,0.8095,0.8096,0.8097,0.8164,0.8165,0.8166,0.8166,0.824,0.8241,0.8243,0,0,0,0,0,0,0,0,0,0,0,0,0,0.7983,0.7931,0.8019,0.8063,0.8068,0.8095,0.8096,0.8097,0.8163,0.8165,0.8166,0.8167,0.8239,0.8241,0.8243,0.8231,0,0,0.8248,0.8249,0,0,0,0,0,0,0,0,0.7979,0.7986,0.8056,0.806,0.8065,0.8121,0.8092,0.8142,0.8163,0.8127,0.8166,0.8167,0.8199,0.8204,0.8216,0.8234,0.8237,0.8249,0.825,0.825,0.8251,0,0,0,0,0,0,0,0.7976,0.7983,0.8049,0.8057,0.8063,0.8078,0.8087,0.8101,0.8155,0.813,0.8135,0.8144,0.8202,0.8214,0.8218,0.8239,0.8249,0.825,0.8251,0.8252,0.8252,0.8251,0,0,0,0,0,0,0.7966,0.7979,0.8047,0.8051,0.8025,0.8079,0.8089,0.8102,0.8156,0.8165,0.8143,0.8146,0.821,0.8216,0.8221,0.8212,0.825,0.8252,0.8253,0.8254,0.8252,0.8251,0,0,0,0,0,0,0.7963,0.7971,0.8044,0.8017,0.8027,0.8079,0.8093,0.8103,0.8115,0.8165,0.8175,0.8145,0.8211,0.8218,0.8229,0.8215,0.8253,0.8255,0.8255,0.8253,0.8252,0.8192,0,0,0,0,0,0,0.796,0.797,0.7966,0.8016,0.8029,0.805,0.8093,0.8104,0.8119,0.8124,0.817,0.8178,0.8213,0.8225,0.823,0.8218,0.8256,0.8256,0.8254,0.8252,0.8195,0.8188,0.8182,0,0,0,0,0,0.7957,0.7945,0.7965,0.7973,0.8025,0.8049,0.8056,0.8097,0.8117,0.8114,0.8146,0.8177,0.8216,0.8226,0.8232,0.822,0.8257,0.8255,0.8252,0.8198,0.819,0.8183,0,0,0,0,0,0,0.7889,0.7952,0.7976,0.798,0.8009,0.806,0.8057,0.8087,0.811,0.8114,0.8163,0.8173,0.8178,0.82,0.821,0.8213,0.8241,0.8239,0.8197,0.819,0.8184,0.8178,0.8258,0,0,0,0,0,0.7876,0.7891,0.7944,0.7942,0.7956,0.8004,0.8016,0.8046,0.8077,0.809,0.8123,0.8151,0.817,0.8181,0.8201,0.8199,0.821,0.8194,0.8188,0.8182,0.818,0.8182,0.8175,0.8243,0.8243,0.8243,0,0,0.7846,0.7882,0.7888,0.793,0.7956,0.797,0.8014,0.8027,0.8038,0.8091,0.8103,0.8129,0.8164,0.8168,0.8171,0.8187,0.8165,0.8179,0.8175,0.8175,0.8179,0.8172,0.8166,0.8241,0.8242,0.8242,0,0,0.7799,0.7828,0.783,0.7856,0.7896,0.7929,0.7929,0.7977,0.7997,0.801,0.8051,0.8064,0.8096,0.812,0.8136,0.8101,0.813,0.8106,0.8072,0.8073,0.8068,0.8063,0.8051,0.8046,0.8104,0.8104,0.8104,0,0.7756,0.7781,0.7827,0.7839,0.7856,0.7908,0.791,0.7933,0.7976,0.7987,0.8004,0.8046,0.8073,0.8084,0.8076,0.8087,0.8089,0.81,0.8065,0.8061,0.8057,0.8046,0.8041,0.8101,0.8101,0.8101,0.8102,0,0.7727,0.7743,0.774,0.7783,0.7801,0.7807,0.7854,0.7866,0.7895,0.7925,0.7939,0.7974,0.8002,0.8007,0.8034,0.8023,0.8031,0.8056,0.8085,0.8047,0.8037,0.8033,0.8096,0.8097,0.8098,0.8099,0,0,0.7638,0.7709,0.7707,0.7728,0.7777,0.779,0.7799,0.7829,0.7838,0.7867,0.7876,0.7903,0.7927,0.7945,0.7976,0.7976,0.7947,0.8002,0.8003,0.799,0.7937,0.7917,0.7912,0.7968,0.7967,0.7967,0.7934,0,0.7599,0.762,0.7663,0.767,0.7686,0.7737,0.7745,0.7776,0.7805,0.7822,0.7854,0.7872,0.7902,0.7914,0.7917,0.795,0.7937,0.7953,0.7976,0.7976,0.7965,0.7907,0.7886,0.7853,0.793,0.793,0.7929,0,0.7556,0.7584,0.7593,0.7643,0.7651,0.7658,0.769,0.7706,0.7742,0.7763,0.7785,0.7819,0.7832,0.786,0.7877,0.7887,0.7899,0.7917,0.7917,0.792,0.7949,0.7908,0.7844,0.7839,0.7924,0.7924,0.7925,0,0.749,0.753,0.7541,0.7558,0.7616,0.762,0.7644,0.7681,0.7697,0.7725,0.7735,0.7763,0.7778,0.7799,0.784,0.7857,0.7853,0.7884,0.7871,0.7869,0.7867,0.7866,0.7803,0.7875,0.7875,0.7875,0.7875,0,0.7442,0.7445,0.7513,0.7519,0.7525,0.7575,0.7579,0.7608,0.7642,0.7654,0.7699,0.771,0.7764,0.7781,0.7813,0.7823,0.783,0.7847,0.7855,0.7842,0.784,0.785,0.7853,0.7874,0.7874,0.7874,0.7875,0,0.7369,0.7414,0.743,0.7485,0.7499,0.75,0.7547,0.7555,0.7588,0.7604,0.761,0.7661,0.7684,0.7728,0.7762,0.7784,0.7786,0.7801,0.7774,0.7779,0.7763,0.7764,0.7704,0.7699,0.7774,0.7773,0.7772,0,0.7335,0.7339,0.7395,0.7408,0.7431,0.7451,0.7468,0.7518,0.7533,0.7576,0.7579,0.7606,0.763,0.7663,0.7702,0.7729,0.7745,0.7722,0.7749,0.7736,0.7744,0.7743,0.7744,0.7716,0.7714,0.7714,0.7713,0,0.7269,0.7292,0.7316,0.7348,0.7368,0.7395,0.7424,0.7432,0.7488,0.7504,0.7528,0.7547,0.7583,0.7609,0.7642,0.7666,0.7698,0.7705,0.7703,0.7689,0.7674,0.7682,0.7757,0.7705,0.7706,0.7707,0.7707,0.7707,0.7215,0.7222,0.7263,0.7288,0.7316,0.7343,0.7354,0.7389,0.7411,0.7446,0.7474,0.7496,0.7533,0.7581,0.7604,0.7621,0.7637,0.7634,0.7633,0.7632,0.7627,0.7672,0.7628,0.7628,0.7628,0.7628,0.7629,0,0.7152,0.7182,0.7205,0.7246,0.7265,0.7297,0.7331,0.7346,0.7365,0.7398,0.7422,0.745,0.7476,0.7518,0.7547,0.7553,0.7569,0.7559,0.7559,0.7564,0.7611,0.761,0.7546,0.7546,0.7546,0.7546,0.7546,0.7546,0.7122,0.7135,0.7163,0.7191,0.7221,0.7244,0.7261,0.7286,0.7313,0.7344,0.7366,0.7394,0.7431,0.7463,0.7488,0.75,0.7508,0.7494,0.751,0.7553,0.7561,0.7568,0.7567,0.7495,0.7495,0.7461,0.7461,0.7461]}]]